Viroqua, WI

12:24 PM CST on February 12, 2016 (GMT -0600)
Viroqua

Weather History for KY51 - September, 2013

Change the Weather History Date:

Tuesday, September 17, 2013

  Actual Average (KLSE) Record (KLSE)
Temperature  
Mean Temperature 54 °F 62 °F  
Max Temperature 65 °F 73 °F 93 °F (1955)
Min Temperature 43 °F 52 °F 33 °F (1916)
Degree Days  
Heating Degree Days 11 5  
Month to date heating degree days 47  
Since 1 July heating degree days 67  
Cooling Degree Days 0 2  
Month to date cooling degree days 58  
Year to date cooling degree days 758  
Growing Degree Days 4 (Base 50)    
Moisture  
Dew Point 50 °F    
Average Humidity 89    
Maximum Humidity 100    
Minimum Humidity 62    
Precipitation  
Precipitation 0.10 in 0.12 in 1.74 in (1942)
Month to date precipitation 2.08  
Year to date precipitation 26.04  
Snow  
Snow 0.00 in 0.00 in 0.00 in (2002)
Month to date snowfall 0.0  
Since 1 July snowfall 0.0  
Snow Depth -    
Sea Level Pressure  
Sea Level Pressure 30.21 in    
Wind  
Wind Speed 8 mph (SE)    
Max Wind Speed 14 mph    
Max Gust Speed 16 mph    
Visibility 9 miles    
Events      
T = Trace of Precipitation, MM = Missing Value Source: NWS Daily Summary

Daily Weather History Graph

Daily Weather History Graph

Search for Another Location

Airport or City:

Trip Planner

Search our weather history database for the weather conditions in past years. The results will help you decide how hot, cold, wet, or windy it might be!

Date:

Astronomy

Sep. 17, 2013 Rise Set
Actual Time 6:45 AM CDT 7:09 PM CDT
Civil Twilight 6:16 AM CDT 7:38 PM CDT
Nautical Twilight 5:42 AM CDT 8:12 PM CDT
Astronomical Twilight 5:08 AM CDT 8:46 PM CDT
Moon 5:58 PM CDT (9/17) 4:37 AM CDT (9/17)
Length of Visible Light 13h 21m
Length of Day
12h 24m
Waxing Gibbous, 96% of the Moon is Illuminated
Sep 17
Waxing Gibbous
Sep 19
Full
Sep 26
Last Quarter
Oct 4
New
Oct 11
First Quarter

Hourly Weather History & Observations

Time (CDT) Temp. Windchill Dew Point Humidity Pressure Visibility Wind Dir Wind Speed Gust Speed Precip Events Conditions
12:15 AM 45.7 °F 41.5 °F 42.8 °F 90% 30.33 in 10.0 mi ESE 8.1 mph - N/A   Clear
12:35 AM 46.6 °F - 43.0 °F 87% 30.33 in 10.0 mi ESE 9.2 mph - N/A   Clear
12:55 AM 46.6 °F - 43.2 °F 88% 30.33 in 10.0 mi ESE 8.1 mph - N/A   Clear
1:15 AM 46.6 °F - 43.7 °F 90% 30.33 in 10.0 mi ESE 9.2 mph - N/A   Clear
1:35 AM 46.6 °F - 43.7 °F 90% 30.33 in 10.0 mi ESE 9.2 mph - N/A   Clear
1:55 AM 46.6 °F - 43.9 °F 90% 30.33 in 10.0 mi SE 8.1 mph - N/A   Clear
2:15 AM 46.2 °F 41.7 °F 43.9 °F 92% 30.32 in 10.0 mi ESE 9.2 mph - N/A   Clear
2:35 AM 45.9 °F 41.7 °F 45.1 °F 97% 30.32 in 10.0 mi ESE 8.1 mph - N/A   Clear
2:55 AM 45.7 °F 42.7 °F 45.1 °F 98% 30.32 in 10.0 mi SE 5.8 mph - N/A   Clear
3:15 AM 45.1 °F 41.4 °F 44.8 °F 99% 30.32 in 10.0 mi SE 6.9 mph - N/A   Clear
3:35 AM 44.6 °F 42.2 °F 44.4 °F 99% 30.32 in 10.0 mi SE 4.6 mph - N/A   Clear
3:55 AM 43.7 °F 41.1 °F 43.7 °F 100% 30.32 in 10.0 mi SE 4.6 mph - N/A   Clear
4:15 AM 44.4 °F 40.5 °F 44.4 °F 100% 30.31 in 10.0 mi SE 6.9 mph - N/A   Clear
4:35 AM 44.6 °F 40.7 °F 44.6 °F 100% 30.31 in 10.0 mi SE 6.9 mph - N/A   Clear
4:55 AM 44.2 °F 41.0 °F 44.2 °F 100% 30.31 in 10.0 mi SE 5.8 mph - N/A   Clear
5:15 AM 44.1 °F 39.5 °F 44.1 °F 100% 30.30 in 10.0 mi ESE 8.1 mph - N/A   Clear
5:35 AM 44.1 °F 40.1 °F 44.1 °F 100% 30.30 in 10.0 mi ESE 6.9 mph - N/A   Clear
5:55 AM 43.9 °F 39.9 °F 43.9 °F 100% 30.30 in 10.0 mi ESE 6.9 mph - N/A   Clear
6:15 AM 43.7 °F 41.1 °F 43.7 °F 100% 30.30 in 10.0 mi ESE 4.6 mph - N/A   Clear
6:35 AM 43.2 °F 39.7 °F 43.2 °F 100% 30.30 in 7.0 mi ESE 5.8 mph - N/A   Clear
6:55 AM 43.2 °F 39.7 °F 43.2 °F 100% 30.30 in 5.0 mi ESE 5.8 mph - N/A   Clear
7:15 AM 43.3 °F 39.9 °F 43.3 °F 100% 30.30 in 4.0 mi ESE 5.8 mph - N/A   Clear
7:35 AM 44.6 °F 41.4 °F 44.6 °F 100% 30.29 in 7.0 mi ESE 5.8 mph - N/A   Scattered Clouds
7:55 AM 45.9 °F 43.6 °F 45.9 °F 100% 30.29 in 5.0 mi ESE 4.6 mph - N/A   Overcast
8:15 AM 47.5 °F - 47.5 °F 100% 30.29 in 7.0 mi SE 6.9 mph - N/A   Mostly Cloudy
8:35 AM 48.6 °F - 48.6 °F 100% 30.29 in 7.0 mi SE 6.9 mph - N/A   Scattered Clouds
8:55 AM 50.9 °F - 50.2 °F 97% 30.29 in 10.0 mi SE 8.1 mph - N/A   Scattered Clouds
9:15 AM 51.4 °F - 50.5 °F 97% 30.28 in 7.0 mi SSE 8.1 mph - N/A   Mostly Cloudy
9:35 AM 52.5 °F - 51.1 °F 95% 30.28 in 7.0 mi SE 9.2 mph - N/A   Overcast
9:55 AM 53.1 °F - 51.4 °F 94% 30.28 in 7.0 mi South 8.1 mph - N/A   Mostly Cloudy
10:15 AM 54.1 °F - 50.9 °F 89% 30.27 in 10.0 mi South 5.8 mph - N/A   Scattered Clouds
10:35 AM 56.5 °F - 50.2 °F 79% 30.26 in 10.0 mi SE 6.9 mph - N/A   Clear
10:55 AM 57.2 °F - 49.3 °F 75% 30.25 in 10.0 mi ESE 6.9 mph - N/A   Clear
11:15 AM 59.5 °F - 50.5 °F 72% 30.25 in 10.0 mi SE 6.9 mph - N/A   Clear
11:35 AM 61.2 °F - 50.2 °F 67% 30.24 in 10.0 mi SSE 9.2 mph - N/A   Clear
11:55 AM 59.9 °F - 50.2 °F 70% 30.24 in 10.0 mi SE 9.2 mph - N/A   Clear
12:15 PM 61.3 °F - 51.3 °F 69% 30.23 in 10.0 mi SSE 8.1 mph - N/A   Clear
12:35 PM 60.8 °F - 51.4 °F 71% 30.22 in 10.0 mi SSE 11.5 mph - N/A   Clear
12:55 PM 61.2 °F - 51.3 °F 70% 30.22 in 10.0 mi South 8.1 mph - N/A   Scattered Clouds
1:15 PM 60.6 °F - 50.9 °F 70% 30.22 in 10.0 mi South 9.2 mph - N/A   Mostly Cloudy
1:35 PM 60.8 °F - 52.2 °F 73% 30.22 in 10.0 mi SSE 9.2 mph - N/A   Scattered Clouds
1:55 PM 62.4 °F - 52.3 °F 70% 30.20 in 10.0 mi SSE 8.1 mph - N/A   Scattered Clouds
2:15 PM 62.8 °F - 52.3 °F 69% 30.20 in 10.0 mi SSE 9.2 mph - N/A   Mostly Cloudy
2:35 PM 65.1 °F - 52.5 °F 64% 30.18 in 10.0 mi SE 10.4 mph - N/A   Overcast
2:55 PM 63.7 °F - 50.4 °F 62% 30.17 in 10.0 mi SSE 9.2 mph 16.1 mph N/A   Mostly Cloudy
3:15 PM 63.7 °F - 50.5 °F 62% 30.17 in 10.0 mi SSE 11.5 mph - N/A   Scattered Clouds
3:35 PM 63.0 °F - 51.3 °F 66% 30.16 in 10.0 mi SE 9.2 mph - N/A   Mostly Cloudy
3:55 PM 62.8 °F - 51.8 °F 67% 30.15 in 10.0 mi SSE 6.9 mph - N/A   Overcast
4:15 PM 62.8 °F - 50.4 °F 64% 30.14 in 10.0 mi SSE 13.8 mph - N/A   Overcast
4:35 PM 62.2 °F - 51.8 °F 69% 30.14 in 10.0 mi SSE 9.2 mph 16.1 mph N/A   Overcast
4:55 PM 60.8 °F - 53.6 °F 77% 30.13 in 10.0 mi SSE 6.9 mph - N/A   Overcast
5:15 PM 59.7 °F - 54.1 °F 82% 30.12 in 7.0 mi SSE 6.9 mph - 0.02 in   Overcast
5:35 PM 59.0 °F - 55.0 °F 87% 30.12 in 10.0 mi SSE 5.8 mph - 0.02 in   Overcast
5:55 PM 58.8 °F - 55.2 °F 88% 30.12 in 5.0 mi SSE 6.9 mph - 0.04 in   Overcast
6:15 PM 58.1 °F - 56.8 °F 96% 30.12 in 2.5 mi South 6.9 mph - 0.04 in   Overcast
6:35 PM 57.2 °F - 56.7 °F 98% 30.11 in 4.0 mi SE 9.2 mph - 0.06 in   Overcast
6:55 PM 57.2 °F - 56.3 °F 97% 30.10 in 10.0 mi ESE 8.1 mph - 0.06 in   Overcast
7:15 PM 57.2 °F - 56.8 °F 99% 30.09 in 7.0 mi ESE 6.9 mph - N/A   Overcast
7:35 PM 57.2 °F - 56.7 °F 98% 30.08 in 10.0 mi ESE 6.9 mph - N/A   Overcast
7:55 PM 57.2 °F - 57.0 °F 99% 30.08 in 10.0 mi ESE 8.1 mph - N/A   Overcast
8:15 PM 57.2 °F - 57.2 °F 100% 30.08 in 10.0 mi ESE 6.9 mph - N/A   Overcast
8:35 PM 57.7 °F - 57.2 °F 98% 30.08 in 10.0 mi ESE 8.1 mph - N/A   Overcast
8:55 PM 58.1 °F - 57.4 °F 97% 30.07 in 10.0 mi SE 9.2 mph - N/A   Overcast
9:15 PM 58.1 °F - 57.4 °F 97% 30.07 in 10.0 mi SE 10.4 mph - N/A   Overcast
9:35 PM 58.5 °F - 57.6 °F 97% 30.06 in 10.0 mi SE 10.4 mph - N/A   Overcast
9:55 PM 58.8 °F - 57.6 °F 96% 30.06 in 10.0 mi SE 10.4 mph - N/A   Overcast
10:15 PM 59.0 °F - 57.6 °F 95% 30.06 in 10.0 mi SE 9.2 mph - N/A   Overcast
10:35 PM 59.0 °F - 57.6 °F 95% 30.06 in 10.0 mi SE 8.1 mph - N/A   Overcast
10:55 PM 59.2 °F - 57.7 °F 95% 30.06 in 10.0 mi SSE 9.2 mph - N/A   Overcast
11:15 PM 59.2 °F - 57.7 °F 95% 30.05 in 10.0 mi SSE 9.2 mph - N/A   Overcast
11:35 PM 59.2 °F - 57.9 °F 96% 30.05 in 10.0 mi SSE 9.2 mph - N/A   Overcast
11:55 PM 59.4 °F - 58.1 °F 96% 30.05 in 10.0 mi SSE 9.2 mph - N/A   Overcast